カタログに戻る

STARLINK-2717

運用中通信VLEO
NORAD 48659·PAYLOAD·🇺🇸 United States

打ち上げ May 26, 2021 から Cape Canaveral Space Force Station

Loading…

次のパス (今後24時間)

TLE

最新Source: CelesTrak SupGP

元期: Sep 15, 2026, 01:23 UTC

1 48659C 21044X   26258.05812500  .00053295  00000+0  17134-2 0  2586
2 48659  53.1575 312.5798 0001161  98.1181 280.7251 15.31684434    17

AllMySatでSTARLINK-2717をリアルタイム追跡

Download on the App Store